Theta_e
308 308 312 310 310 298 305 305 300 302 309 306 301 302 304 304 301 297 304 302 304 309 310 315 316 317 319 321 322 322 328 335 337 335 335 336 337 339 341 343 345 348 348 354 356 352 349 348 352 353 355 356 356 359 361 363 363 362 362 363 362 361 361
309 312 312 312 311 310 306 302 305 310 311 309 303 296 300 298 295 299 302 300 302 301 298 312 315 315 317 319 320 327 332 335 331 335 336 334 335 338 340 343 346 350 353 354 353 352 352 351 352 354 357 357 358 359 361 362 363 362 362 362 361 362 361
307 311 311 309 312 313 306 304 313 304 298 297 303 301 293 294 294 297 302 303 302 304 304 308 310 313 315 319 320 321 329 332 332 333 336 338 338 337 341 342 346 349 351 351 350 351 351 353 356 355 358 357 357 359 360 363 362 362 362 360 363 364 362
307 309 307 299 304 310 311 311 307 311 307 303 299 301 302 301 296 297 298 303 300 306 308 310 310 314 317 318 319 319 322 333 331 335 335 335 339 339 340 342 344 346 347 349 351 351 350 349 351 352 355 356 355 356 359 362 363 364 363 362 364 362 361
304 299 304 301 304 303 304 304 303 305 305 309 307 306 302 299 297 297 298 297 303 310 313 312 313 314 316 317 320 323 328 331 332 333 334 337 338 339 339 340 343 344 344 346 349 352 353 354 356 356 353 355 355 357 359 361 362 362 361 361 361 362 364
298 301 307 307 306 307 306 304 302 304 302 300 298 297 306 303 299 296 298 297 306 312 316 315 315 316 316 318 322 322 323 330 330 332 334 337 336 337 338 341 343 344 345 347 349 350 349 350 354 351 352 352 356 357 359 361 362 362 361 360 362 363 363
298 302 306 309 310 309 307 307 304 306 306 305 301 294 299 303 303 304 303 300 304 316 317 317 317 317 317 319 321 322 323 327 334 333 334 337 340 341 339 340 340 340 344 347 347 350 349 349 350 351 352 352 354 357 360 361 361 362 362 362 362 365 363
301 303 305 306 306 306 304 306 307 306 303 305 304 303 305 302 303 300 300 299 304 313 319 320 318 321 318 321 320 321 321 323 325 326 334 335 338 341 341 342 340 342 344 348 348 347 348 348 347 350 351 353 355 358 360 361 362 363 363 363 363 364 363
294 296 300 301 305 305 302 301 304 306 306 306 306 306 308 301 302 303 299 295 301 312 319 320 319 317 317 318 319 321 320 322 323 324 327 338 338 338 337 339 341 344 345 346 349 349 350 351 349 351 355 356 357 358 359 361 362 364 364 364 364 364 362
285 285 287 292 296 299 302 304 304 305 305 304 302 298 302 297 306 309 304 300 307 315 322 316 318 316 321 318 319 319 321 323 321 322 323 335 338 338 338 342 343 342 345 350 350 349 349 352 352 355 358 357 358 359 360 362 363 364 364 364 363 365 364
291 294 297 299 302 301 298 301 302 302 303 304 302 301 300 297 304 304 307 309 309 312 312 314 315 315 315 315 318 321 319 322 328 333 336 338 340 340 340 341 342 344 345 349 351 352 350 350 351 354 356 358 358 360 361 361 363 364 365 364 365 364 362
296 297 298 299 299 297 299 299 300 302 302 302 300 297 296 305 301 298 309 316 307 311 315 314 315 315 318 318 322 321 324 323 324 327 343 343 336 339 340 341 343 347 347 349 351 352 351 349 353 355 357 358 360 362 360 361 362 362 363 364 365 365 363
296 297 297 298 298 298 299 300 300 300 302 301 300 300 302 303 300 300 310 315 310 313 316 317 320 322 322 323 325 325 328 328 329 334 329 328 330 334 335 350 357 353 347 346 350 353 354 353 354 355 356 358 360 363 362 362 361 362 365 365 366 365 364
294 295 296 297 296 298 298 298 299 302 301 299 300 301 303 303 306 309 308 312 310 319 320 318 320 322 323 324 326 328 330 329 332 331 330 328 328 334 338 341 341 349 346 348 359 358 358 355 356 353 356 360 360 360 360 360 362 363 365 365 365 365 364
292 295 296 296 296 295 294 297 300 301 300 300 301 302 303 304 305 307 307 309 310 317 323 323 323 323 326 325 326 326 327 327 325 326 331 331 332 334 335 339 342 346 349 347 346 359 364 359 358 356 358 359 359 358 360 360 364 365 366 364 364 365 364
290 294 294 295 296 296 295 296 297 298 299 298 301 300 304 303 302 306 306 306 306 322 321 321 324 323 324 324 324 325 325 326 329 332 333 332 333 336 338 340 342 342 343 347 348 346 352 359 362 359 362 360 358 357 360 361 361 362 363 364 363 365 366
288 293 294 294 294 294 291 292 295 298 300 301 303 304 305 305 304 302 302 304 312 321 322 319 320 321 323 324 323 323 326 332 332 332 334 335 336 337 341 342 343 343 346 352 356 349 347 346 350 352 357 356 360 360 361 363 363 361 361 361 365 366 366
288 292 294 295 291 284 286 298 301 300 299 301 300 301 303 305 306 304 307 309 314 319 318 320 319 320 322 323 324 329 329 330 330 331 333 333 335 337 339 342 345 348 350 352 354 355 357 360 350 350 354 351 361 362 363 366 364 362 364 363 364 366 367
288 291 292 288 283 285 297 301 303 303 302 302 302 303 304 305 307 307 306 308 310 317 317 320 320 322 323 326 326 325 326 326 326 327 328 330 332 335 338 340 343 346 349 352 354 355 355 357 359 357 350 355 362 363 363 364 363 364 364 364 365 366 367
291 289 288 279 284 295 299 300 302 304 304 303 303 301 304 306 307 307 309 308 311 316 318 319 321 321 323 323 323 322 322 323 324 325 327 328 331 332 336 338 341 344 346 348 350 353 358 358 358 359 360 348 351 362 362 363 362 363 365 366 366 367 368
285 288 287 287 294 293 295 296 299 303 303 306 305 300 304 307 312 312 312 315 315 316 317 319 320 322 321 320 319 320 320 321 323 325 327 328 329 332 336 338 340 344 347 349 352 357 357 358 358 360 360 357 353 356 358 356 360 361 363 365 366 366 367
291 285 285 286 286 283 290 303 305 310 311 311 311 307 304 312 315 315 313 315 314 315 316 318 318 319 316 313 314 317 318 321 322 325 326 328 330 332 335 338 340 343 345 347 349 351 354 355 356 357 360 362 362 359 359 359 360 359 359 363 367 367 366
289 287 284 284 282 287 301 302 307 309 311 311 311 304 298 309 313 312 312 312 313 314 315 315 319 318 311 310 314 316 317 319 322 322 324 326 329 332 334 335 336 338 341 344 348 351 354 356 359 361 358 358 360 362 359 355 355 356 357 360 365 367 367
290 288 285 284 289 287 298 306 306 308 308 309 306 292 293 306 312 312 312 310 310 312 314 316 315 311 308 308 312 317 317 319 322 322 322 323 326 330 332 334 336 338 341 344 346 348 350 355 361 362 360 358 359 360 357 355 354 356 358 360 364 368 369
290 289 287 289 291 298 305 305 307 307 309 303 294 289 301 308 311 311 311 310 311 312 313 315 312 313 313 314 317 318 318 318 319 321 323 323 324 327 330 331 334 336 339 341 343 346 350 357 359 362 360 356 355 359 360 356 356 357 361 363 366 370 370
288 289 287 287 292 298 302 308 307 309 301 291 290 304 309 310 310 311 312 310 310 311 311 311 312 316 318 318 317 317 318 318 318 319 321 322 323 325 329 330 332 334 336 339 343 347 352 356 359 362 360 359 357 362 361 357 358 360 364 366 368 371 371
291 290 286 285 281 297 305 305 304 310 298 300 305 309 309 311 311 310 310 310 309 310 309 311 313 314 315 316 316 315 318 318 316 317 319 319 320 322 325 326 329 331 333 336 341 344 350 356 361 364 361 360 358 363 362 361 362 365 367 367 369 371 371
286 287 286 286 294 300 305 303 298 304 307 309 310 309 308 310 310 310 309 311 310 311 310 310 311 313 314 314 316 316 317 317 317 318 318 320 322 323 325 326 327 329 331 335 338 343 349 356 363 367 367 361 360 366 365 366 366 367 370 369 371 372 370
291 289 293 298 301 302 305 305 305 310 311 312 312 311 310 311 310 312 310 310 310 312 310 310 310 311 313 313 315 315 315 316 317 317 317 319 320 321 323 324 327 328 329 332 338 344 352 359 364 368 368 365 366 369 370 369 367 368 370 369 370 370 371
300 300 300 302 301 303 304 306 308 307 309 311 312 310 309 310 311 312 309 310 310 311 311 310 310 311 312 313 314 315 316 316 317 318 318 319 320 320 323 325 326 328 330 333 337 342 348 356 363 366 369 367 370 375 374 369 369 369 371 370 368 369 370
292 288 302 300 300 302 304 304 306 308 309 309 310 310 310 310 311 312 313 312 312 310 311 311 311 311 312 312 314 315 316 316 316 317 318 319 320 320 321 325 327 327 329 331 333 337 342 353 359 362 365 368 377 379 375 373 370 371 372 371 367 368 369
292 292 297 299 302 302 303 303 303 306 309 309 309 311 311 311 312 312 312 313 312 313 310 311 311 311 313 313 314 315 316 316 316 317 318 319 320 321 324 327 328 327 328 329 330 332 338 349 358 358 362 368 376 372 369 368 365 371 372 369 368 368 369
294 297 299 300 299 301 303 305 307 307 308 309 309 310 310 311 311 311 313 314 313 313 312 312 312 311 312 314 315 315 315 315 316 317 318 320 321 323 324 326 327 326 327 327 329 331 336 347 353 357 358 360 365 371 375 372 370 367 369 366 368 369 369
290 291 294 297 291 291 297 300 303 305 308 309 309 309 309 309 309 310 310 311 312 312 313 313 313 313 313 314 315 314 315 316 316 317 318 319 322 323 323 325 326 327 328 328 329 331 338 345 346 349 355 357 360 364 369 371 372 369 369 369 368 368 368
287 294 296 298 297 297 299 301 304 306 307 308 307 308 308 309 310 311 310 310 311 312 313 314 312 312 313 314 315 315 316 316 318 319 319 320 320 322 323 322 323 324 326 328 328 330 334 340 342 346 350 356 356 357 364 370 371 370 370 368 367 367 365
295 298 298 298 297 296 299 303 305 306 307 307 308 309 309 310 310 311 311 311 310 311 312 313 314 313 314 315 315 315 316 316 317 318 319 320 320 323 323 321 322 324 326 326 326 328 332 337 339 342 344 348 354 358 365 367 365 368 368 367 366 365 365
294 300 300 301 301 302 305 306 307 309 310 310 308 309 309 310 311 312 311 311 312 312 312 312 313 314 314 315 316 315 316 316 317 318 320 320 320 322 321 321 322 323 326 326 327 328 331 333 334 336 339 341 343 352 358 356 355 358 359 356 354 363 365
Wind_Speed
19 18 15 16 15 12 9 12 15 13 9 12 11 14 17 15 11 11 7 10 12 9 12 11 15 16 17 15 13 17 22 22 23 19 19 19 17 17 17 18 17 16 17 12 9 9 15 19 19 18 17 17 18 17 18 19 19 18 19 19 18 17 16
11 19 17 16 17 17 12 13 12 11 15 13 11 10 8 11 11 8 10 13 10 12 11 11 13 17 18 18 14 19 26 27 22 20 19 19 20 19 19 17 14 15 13 11 10 7 10 18 20 19 18 18 16 17 20 22 20 20 19 19 18 17 16
13 12 17 16 18 20 19 14 7 13 12 15 11 7 12 11 11 8 9 11 13 11 9 10 16 15 14 16 17 15 21 26 27 22 23 22 20 18 17 18 14 14 12 11 13 12 13 12 14 16 15 18 16 17 20 23 23 23 22 19 18 15 17
13 12 10 16 15 19 21 19 18 12 11 12 12 11 8 8 10 8 11 12 9 10 10 13 14 16 14 15 18 17 16 28 21 18 21 20 18 17 17 17 16 15 13 14 13 12 14 14 12 10 11 17 22 21 21 21 21 19 18 19 17 17 18
16 11 8 13 15 13 15 17 15 12 11 9 11 11 13 10 9 9 8 11 8 6 8 11 14 15 18 16 14 14 18 23 22 21 21 17 18 18 18 19 18 18 18 18 15 12 9 5 3 2 8 15 21 21 21 22 22 22 22 21 19 17 16
12 11 9 13 15 16 15 14 15 13 12 11 13 14 12 14 11 6 8 10 7 11 8 8 9 11 13 14 7 11 15 20 20 22 21 21 21 21 21 20 20 20 18 17 15 13 9 9 9 10 13 17 23 24 21 22 22 21 22 21 18 17 16
12 15 15 13 14 17 17 12 16 17 15 13 10 9 11 12 13 12 11 9 7 6 7 13 9 10 14 14 14 12 14 21 21 19 24 23 20 21 22 22 20 19 19 18 19 18 17 16 16 18 20 19 20 23 22 21 22 23 23 22 20 17 16
18 22 20 19 18 19 19 16 15 14 18 15 12 11 11 11 12 12 10 10 7 4 13 8 11 11 9 10 16 15 15 13 11 17 21 24 22 20 22 19 18 16 17 17 17 19 21 21 23 23 22 24 22 22 21 21 23 23 21 19 19 18 17
10 13 14 14 13 12 8 7 10 14 19 21 14 15 13 14 14 15 11 10 11 2 4 6 3 5 11 13 8 12 15 12 13 15 13 20 21 21 24 21 18 18 19 18 16 17 17 18 19 21 22 18 22 21 21 21 21 22 20 18 19 19 20
11 11 12 8 8 8 10 8 12 16 17 15 10 10 11 9 2 6 4 10 11 4 4 2 4 9 2 2 10 14 12 13 15 13 14 11 24 20 21 19 19 18 16 15 16 17 16 16 19 17 18 21 21 19 20 19 19 19 20 19 19 19 19
12 9 12 15 12 11 11 12 13 15 17 15 15 14 14 11 7 11 7 5 8 6 5 8 2 3 5 2 8 10 7 9 12 11 10 2 13 21 21 19 17 14 15 17 18 19 18 21 19 18 19 19 19 16 18 19 18 19 17 17 16 18 20
17 19 17 15 15 15 15 16 16 16 15 15 16 12 13 15 12 13 6 5 7 12 18 2 10 10 2 3 3 4 10 5 10 10 5 8 16 19 16 17 18 14 12 15 18 18 19 19 19 18 19 19 17 16 18 18 19 19 17 17 16 17 18
17 19 18 17 15 16 16 17 17 19 16 17 16 16 18 18 10 7 5 9 6 10 10 13 15 10 11 10 11 12 10 14 12 7 6 10 8 9 10 3 4 5 10 17 16 18 19 20 20 18 18 18 15 14 15 16 18 19 16 15 15 17 17
17 18 18 16 17 15 15 18 21 19 14 18 19 20 19 21 12 10 14 5 8 10 8 7 8 11 12 11 9 8 11 13 14 15 17 15 12 13 17 16 12 5 5 9 8 17 15 19 17 19 16 15 16 16 17 18 16 16 15 15 15 17 17
15 16 16 16 16 15 18 20 20 16 17 18 19 19 17 19 16 15 17 11 7 6 7 7 8 11 14 10 13 14 13 14 15 12 9 13 10 13 14 10 10 10 10 8 13 12 8 13 14 14 12 14 15 18 16 17 14 14 15 15 15 15 16
12 12 14 14 15 18 19 18 18 18 18 17 15 14 11 12 14 13 12 8 8 5 4 8 12 13 12 14 13 10 11 14 13 14 12 10 10 11 13 11 10 9 10 4 6 6 16 6 8 10 8 12 14 16 15 16 17 17 16 15 16 15 15
12 11 13 14 15 14 15 17 18 19 18 16 16 15 16 16 15 13 11 10 7 6 5 5 7 3 8 8 8 11 10 9 9 9 10 11 12 13 12 12 12 10 9 9 6 4 14 8 4 9 9 11 12 12 12 13 13 16 16 17 14 14 14
10 13 15 13 11 13 12 9 16 18 16 15 16 15 15 15 12 10 10 9 7 7 11 10 8 8 6 6 7 11 10 8 10 10 10 12 12 12 11 12 13 13 12 10 9 9 7 6 9 10 9 12 9 12 10 10 13 13 12 14 14 15 14
10 11 12 12 14 12 10 11 10 9 11 13 17 18 16 17 15 14 16 17 15 10 7 7 6 6 5 6 12 14 14 13 11 11 11 12 12 11 11 12 11 12 11 12 12 11 10 6 4 6 11 14 9 11 11 12 14 12 12 13 13 14 15
8 9 9 9 10 8 12 11 12 13 12 11 13 15 17 18 17 15 18 19 10 5 11 6 5 5 7 4 14 13 14 13 11 12 11 13 13 12 11 11 11 12 12 12 13 12 11 10 9 7 7 8 13 11 13 12 13 13 12 11 13 14 15
9 9 9 12 11 14 14 13 10 5 5 8 6 5 8 9 9 11 13 17 14 15 10 8 6 7 6 6 9 14 15 13 13 12 12 13 13 13 12 12 13 12 12 12 13 13 12 12 12 10 9 11 12 12 15 16 13 15 13 12 14 16 17
8 8 10 9 8 11 9 4 4 6 7 5 4 4 9 9 16 15 15 15 14 13 10 10 10 9 6 8 5 13 15 13 14 12 13 13 13 14 14 14 14 13 14 14 15 14 15 14 14 13 14 11 10 11 12 13 14 15 15 14 14 16 17
8 9 9 9 8 9 1 1 6 5 4 7 6 7 9 8 14 15 15 16 14 14 14 14 11 6 3 4 9 12 15 14 13 14 13 14 13 14 14 15 16 17 16 16 16 16 16 16 15 14 15 15 12 10 14 18 18 17 17 16 15 17 17
10 10 10 10 7 6 4 6 2 2 6 5 6 12 7 10 14 12 12 13 15 15 14 12 10 10 6 8 9 11 12 13 14 14 14 14 14 13 15 14 15 16 16 16 16 16 16 15 15 14 14 14 12 11 15 18 18 17 17 17 17 15 14
10 11 11 10 9 6 6 2 7 9 7 5 6 10 3 8 10 10 10 11 11 14 15 10 6 6 6 7 9 11 11 11 13 14 14 14 14 14 15 15 16 14 14 14 15 17 15 15 17 17 13 11 11 10 12 15 17 18 17 14 12 12 14
10 9 10 11 10 4 10 7 9 5 7 9 7 4 2 5 6 9 9 9 11 12 13 13 12 9 6 7 10 12 13 12 12 15 15 15 16 15 16 17 16 15 15 16 17 17 16 16 17 16 11 10 9 9 12 16 17 15 12 12 11 12 14
8 9 10 6 11 4 17 16 9 4 6 3 1 2 3 4 6 7 9 6 8 11 10 13 15 14 15 14 12 15 14 13 13 15 16 16 16 17 18 19 19 17 16 17 17 18 18 19 17 15 10 10 10 9 12 15 15 11 11 12 12 13 14
8 9 9 5 4 3 11 15 7 4 2 4 2 2 3 2 3 4 4 4 7 7 10 11 14 14 12 14 13 14 14 14 13 13 15 15 16 17 17 17 18 19 17 16 17 18 18 18 17 14 12 9 9 9 12 12 12 11 10 12 12 13 13
3 6 7 9 12 12 11 6 11 6 2 1 1 3 3 4 2 2 5 4 5 7 10 11 12 11 12 13 14 13 14 13 12 13 14 15 16 17 17 18 19 18 18 19 18 18 17 18 16 12 12 10 9 10 10 10 12 11 11 12 13 13 14
8 13 15 15 12 9 10 10 7 13 7 2 4 3 4 3 5 3 3 5 6 7 7 10 10 9 10 12 12 13 13 12 12 12 13 14 15 17 17 17 19 19 18 18 18 19 20 19 15 12 12 8 7 8 9 11 12 11 11 12 13 14 14
12 7 2 5 11 12 12 11 13 10 12 8 5 5 4 4 5 6 6 5 5 7 9 9 11 12 9 10 11 11 11 11 12 13 12 13 14 16 18 16 18 17 16 17 18 19 20 18 15 13 14 7 3 4 7 9 11 11 11 12 12 13 14
9 13 15 15 14 13 13 12 12 11 8 13 12 7 6 5 6 7 8 7 6 5 8 9 10 11 13 9 9 11 10 10 11 11 12 12 13 14 13 14 16 15 16 17 19 20 18 17 14 12 12 13 3 5 5 8 10 9 9 11 13 13 14
12 16 12 14 20 13 8 7 10 8 11 12 9 7 8 8 8 9 10 9 8 7 8 10 10 10 11 10 8 12 11 9 11 11 11 11 11 13 16 17 16 14 15 17 18 19 18 15 14 11 12 12 12 5 4 5 6 8 8 11 12 13 13
10 9 12 18 12 11 13 18 16 16 13 12 11 11 11 11 11 9 10 10 9 10 10 8 9 10 10 11 6 10 10 9 11 11 12 11 12 13 14 14 14 14 15 16 17 17 14 13 12 12 10 9 9 11 6 6 6 7 8 10 12 13 13
10 15 17 13 14 15 16 18 19 18 16 15 16 13 12 13 12 12 11 10 10 10 10 8 8 9 10 13 10 10 9 8 9 8 10 11 12 12 14 16 17 17 15 15 16 17 17 15 14 12 11 9 9 9 8 5 4 6 8 9 11 12 12
13 12 12 14 13 15 18 21 20 19 17 16 17 16 14 13 12 12 12 11 11 10 9 8 7 9 11 11 9 10 11 9 9 9 9 9 10 11 11 14 15 17 16 16 17 17 16 16 16 14 12 12 10 9 7 3 6 6 5 8 12 11 11
10 8 11 13 15 17 16 16 15 15 16 15 15 16 15 14 13 13 13 13 12 10 9 8 8 7 10 12 11 8 10 10 8 10 10 8 10 10 12 15 16 16 14 13 12 13 14 16 17 15 12 11 12 11 8 7 5 4 1 3 8 9 11
Wind_Direction
216 234 206 200 238 240 197 199 216 223 226 238 245 261 275 285 258 243 227 222 214 238 251 223 216 217 215 227 216 163 158 154 163 172 175 183 182 179 182 185 189 182 187 183 177 186 187 190 193 198 191 190 186 180 180 183 183 183 183 182 181 181 178
261 235 228 205 208 248 266 218 212 220 235 250 236 251 250 245 260 252 222 232 221 202 224 206 219 216 211 207 228 162 169 162 165 170 178 182 181 185 186 184 180 176 171 169 174 177 202 195 192 196 194 191 187 182 181 182 183 183 184 181 182 180 179
279 271 240 215 209 225 244 256 177 208 194 215 232 260 240 248 237 253 242 232 246 212 206 194 210 219 212 197 211 206 165 157 171 172 173 178 185 184 180 186 174 170 168 175 181 188 200 195 189 196 195 193 190 185 185 185 185 185 183 182 181 180 179
287 263 238 222 203 208 240 250 262 253 247 219 216 219 260 257 265 241 241 245 232 220 228 195 209 204 216 211 201 213 154 156 163 165 175 176 177 181 185 189 182 176 170 175 179 181 191 197 197 197 209 206 201 193 186 188 187 184 183 184 181 181 182
312 272 226 237 220 211 205 241 243 239 253 279 242 212 224 233 246 258 263 228 238 245 222 200 204 200 204 222 202 186 150 162 163 174 170 171 180 182 184 187 188 182 182 185 180 178 183 142 72 351 212 224 213 194 190 188 185 185 186 188 184 183 182
257 276 248 257 241 221 211 216 241 235 233 229 222 227 208 224 234 247 260 260 234 206 229 244 208 174 197 208 222 195 168 173 172 173 175 177 184 186 186 189 188 188 182 176 170 178 181 165 144 193 237 227 215 204 193 189 188 188 187 187 184 182 185
273 284 304 290 283 267 261 233 224 232 240 230 233 240 218 218 226 237 253 279 267 331 256 199 189 197 188 197 200 206 202 184 178 178 179 180 181 176 184 184 186 183 181 179 176 175 184 178 179 191 203 216 222 205 193 189 190 190 190 187 184 180 182
286 286 288 296 299 303 268 254 273 253 228 223 231 242 240 233 210 219 224 244 272 47 358 166 184 202 177 191 190 205 213 218 211 197 182 176 178 175 174 182 185 180 185 176 168 174 177 184 190 192 204 211 205 205 195 192 193 191 190 188 185 182 182
277 266 270 276 280 280 273 296 291 281 263 242 240 256 253 245 228 214 209 227 239 91 34 57 259 214 187 158 189 208 203 209 212 226 217 173 175 177 175 176 176 180 182 177 174 179 184 186 189 193 198 196 203 197 196 193 193 190 189 187 185 183 184
234 229 230 243 249 279 291 305 312 303 295 289 290 274 255 255 300 338 267 219 235 230 113 170 294 195 299 94 188 186 225 184 198 217 223 175 174 174 166 164 174 184 170 170 178 183 188 190 191 190 193 199 198 198 197 195 192 191 191 189 186 182 183
265 286 345 311 297 295 288 288 282 311 317 323 338 318 277 250 246 254 227 294 281 196 199 166 68 327 38 289 6 17 240 176 112 57 31 73 152 160 161 169 178 176 166 176 183 186 189 191 191 193 192 194 198 193 193 195 192 191 189 188 184 182 185
267 276 281 306 308 291 293 294 295 295 288 317 316 303 296 321 288 237 223 237 264 44 10 325 182 183 191 313 133 44 12 298 53 65 56 102 138 154 164 170 168 167 170 180 185 190 191 190 191 190 189 192 195 189 191 194 194 194 190 189 182 181 186
269 276 278 276 280 279 278 285 283 274 287 296 289 287 291 287 264 256 220 247 239 74 91 35 40 53 29 30 344 82 38 21 26 39 70 114 87 80 83 39 102 106 179 188 190 192 190 188 187 190 187 191 192 188 192 192 194 193 187 187 183 181 187
269 266 268 275 281 273 279 280 275 259 292 296 295 296 292 287 262 220 243 248 266 120 91 44 17 4 12 7 357 54 38 38 21 27 35 51 95 72 51 33 13 11 6 346 230 190 183 180 183 189 185 185 189 189 190 193 193 189 180 185 184 183 187
267 271 278 280 273 268 271 268 261 269 281 276 278 279 282 292 263 230 245 237 228 92 62 74 6 11 10 6 52 29 19 6 11 2 34 49 43 56 42 40 27 32 15 344 340 320 182 174 181 188 185 186 188 195 191 193 194 190 180 181 185 184 187
271 270 270 265 261 257 255 257 262 265 263 264 267 268 275 286 277 247 257 261 239 94 39 58 42 16 14 21 19 25 353 1 9 13 21 36 37 30 25 29 27 40 96 139 209 268 310 281 196 194 189 183 188 197 191 192 193 194 189 181 183 182 183
268 267 265 266 264 264 257 251 251 250 256 262 269 279 279 277 303 276 255 242 254 107 65 93 81 46 20 17 9 353 9 14 13 22 21 19 17 15 16 11 13 24 16 7 359 230 201 212 250 240 218 206 189 197 194 190 190 197 195 188 178 179 180
274 289 282 279 271 251 252 254 239 239 247 255 255 259 264 269 270 292 309 286 263 145 70 69 39 53 22 360 357 44 37 17 18 15 25 16 12 10 11 4 2 4 352 350 333 332 323 278 221 233 219 233 207 190 196 181 189 199 196 187 179 179 178
271 278 282 266 252 254 276 281 290 281 252 248 254 260 269 266 270 284 278 262 256 81 81 62 50 27 358 353 55 51 37 25 16 4 8 9 8 4 7 357 347 346 341 334 328 325 324 316 316 270 233 218 205 185 191 188 188 196 198 188 177 177 179
267 263 261 266 251 292 292 282 280 272 271 280 283 271 260 261 265 295 309 282 298 1 63 65 49 6 356 44 60 48 37 30 11 8 3 357 358 357 353 345 336 332 332 327 316 312 313 308 297 282 282 238 227 190 192 194 188 194 197 188 175 176 180
247 252 258 260 298 288 277 265 262 326 17 29 30 315 292 300 328 355 342 332 5 20 26 13 356 353 343 291 71 27 29 18 17 7 3 352 353 347 343 338 331 323 315 314 321 324 312 308 302 290 260 240 229 203 193 201 192 192 194 191 181 178 183
233 259 262 265 264 260 255 15 21 2 10 357 32 305 284 1 358 3 357 331 7 3 359 3 352 340 320 273 62 13 16 11 7 8 357 355 350 346 340 334 329 326 324 326 323 315 309 301 294 287 285 272 240 204 190 195 192 188 196 196 187 182 185
243 235 247 250 249 256 94 345 342 354 314 349 280 264 251 35 3 10 6 334 342 355 359 358 351 9 264 262 40 1 3 6 5 2 355 355 351 344 342 335 330 329 326 318 308 298 290 283 274 270 274 270 265 215 186 195 200 197 198 199 191 186 186
260 251 241 246 234 270 346 27 288 319 290 280 266 252 247 352 2 354 8 5 2 350 351 357 19 33 16 358 352 352 4 1 3 359 354 350 346 341 343 339 334 323 314 308 304 302 299 298 299 280 253 255 251 235 193 191 199 199 199 200 196 187 180
250 257 257 258 261 252 114 4 335 325 335 329 245 242 43 352 355 351 12 22 2 348 341 351 356 36 15 348 336 342 1 10 2 359 356 349 342 338 342 343 334 322 318 312 306 302 295 293 290 286 267 247 241 236 204 191 199 201 199 196 189 179 178
247 248 254 256 265 56 336 3 329 353 292 247 259 46 293 2 357 355 353 9 7 349 351 346 336 324 339 3 356 349 354 6 6 357 355 349 345 340 340 341 340 333 324 317 309 303 300 295 289 275 253 245 242 233 204 196 198 200 187 184 185 179 178
276 236 243 267 263 32 339 342 281 34 294 39 257 32 25 27 13 2 2 354 13 350 348 340 329 341 343 338 358 355 350 357 8 356 352 353 349 344 340 342 339 334 326 318 314 310 306 303 297 289 241 231 238 232 208 199 192 187 177 180 181 179 178
272 253 238 239 1 337 336 344 321 306 283 12 12 34 243 6 22 16 339 356 348 344 345 338 332 337 337 342 342 351 350 354 2 353 347 348 349 344 340 337 334 330 325 319 314 309 305 302 296 295 285 232 234 226 211 194 182 176 174 175 177 177 179
265 289 298 303 298 302 309 290 307 305 223 195 327 327 293 290 340 331 293 305 308 327 335 327 325 333 339 338 334 351 345 350 351 352 348 346 346 341 339 336 330 329 325 320 316 311 310 307 299 297 287 248 236 222 203 182 175 175 172 172 173 179 179
292 285 269 277 286 314 320 305 283 295 290 168 232 249 278 256 277 289 283 311 316 311 313 315 319 323 328 323 335 346 338 342 346 346 346 342 342 341 337 338 335 330 324 324 325 322 318 315 311 314 290 239 236 207 189 178 176 172 170 172 175 181 180
309 288 66 328 303 310 303 308 301 293 301 281 243 251 239 265 261 272 282 261 281 294 298 301 308 310 315 328 326 332 332 343 345 344 342 341 339 338 332 330 332 328 328 330 327 324 317 318 320 320 321 284 184 186 175 176 174 174 171 171 177 179 182
290 286 299 314 335 317 297 286 290 291 272 270 267 254 261 258 267 262 275 285 258 279 284 290 300 312 315 319 332 323 333 345 341 341 339 337 335 331 324 329 329 329 331 332 329 324 317 316 323 327 333 328 208 163 184 184 181 179 174 174 178 183 184
290 284 284 350 332 314 300 322 327 335 327 313 297 270 257 250 254 262 263 258 280 274 269 272 279 296 309 311 330 320 322 342 341 339 336 332 334 336 340 335 333 333 333 331 327 323 314 317 336 341 334 341 341 308 221 212 200 197 189 177 179 184 185
301 318 342 343 329 318 315 309 309 311 306 291 287 281 269 261 261 269 269 265 261 272 270 277 294 294 296 299 323 312 317 340 333 335 336 337 343 347 340 328 327 329 337 334 326 320 318 331 340 339 337 328 329 337 296 248 247 230 194 182 183 186 187
298 312 317 317 306 297 295 298 300 297 302 304 291 273 263 261 259 258 263 268 262 258 257 257 274 280 285 295 306 305 311 330 327 340 339 346 347 341 338 334 335 335 334 334 330 333 331 336 334 330 335 350 339 321 328 329 287 237 201 189 192 189 191
292 302 310 313 303 298 298 296 291 288 286 282 281 275 268 268 265 258 253 257 264 266 270 270 271 284 285 286 291 301 306 318 329 341 345 356 345 332 337 337 334 332 332 339 343 338 332 334 332 331 346 355 340 314 297 311 348 321 263 222 192 193 198
297 290 303 305 302 299 297 308 307 297 284 274 272 266 259 253 249 252 247 241 236 247 256 257 256 272 295 300 293 286 302 307 323 336 334 351 337 342 342 340 335 333 332 337 333 336 343 342 340 341 344 351 354 352 3 7 3 359 17 292 289 225 200